Location: Unspecified
(51.5147°N, 7.4673°E)
Time: 02:14:06
(UTC+01:00)

Courier 1B Rocket - All Passes

Search period start: 07 February 2026 00:00
Search period end: 17 February 2026 00:00
Orbit: 920 x 1201 km, 28.2° (Epoch: 6 February)

Date Brightness Start Highest point End Pass type
(mag) Time Alt. Az. Time Alt. Az. Time Alt. Az.
7 Feb - 01:31:36 10° S 01:32:48 10° S 01:34:01 10° SSE night (unlit)
8 Feb - 02:22:31 10° SSW 02:23:52 10° S 02:25:13 10° S night (unlit)
9 Feb - 01:21:42 10° S 01:23:00 10° S 01:24:17 10° SSE night (unlit)
